Zurück zum Katalog

ONEWEB-0510

AktivKommunikationPO
NORAD 54128·PAYLOAD·🇬🇧 United Kingdom

Gestartet Oct 22, 2022 von Satish Dhawan Space Centre

Loading…

Nächste Überflüge (nächste 24 Stunden)

TLE

AktuellSource: CelesTrak SupGP

Epoche: Sep 14, 2026, 14:59 UTC

1 54128C 22138R   26257.62449491 -.00001640  00000+0 -40388-2 0  2571
2 54128  87.9144 256.5945 0001986 101.8010  11.0663 13.20773331    14

Verfolge ONEWEB-0510 in Echtzeit mit AllMySat

Download on the App Store